This demonstration page uses our WeatherBlox Daily Observations layout. Learn more.

Left ArrowRight Arrow

38.88101, -77.10428

Hourly Observations for July 30, 2020

Temp ( °F °C ) Dew Point ( °F °C ) Humidity (%) Winds ( mph kmh ) Pressure ( in mb ) Visibility ( mi km ) Precip ( " mm )
12:52 am 00:52 Mostly Clear 81 27.2 73 22.8 77 77 S 8 13 29.91 1013 10 16.0934 0 0
1:52 am 01:52 Mostly Clear 80 26.7 74 23.3 82 82 SW 3 6 29.91 1013 10 16.0934 0 0
2:52 am 02:52 Mostly Clear 80 26.7 74 23.3 82 82 SSW 5 7 29.89 1012 10 16.0934 0 0
3:52 am 03:52 Mostly Clear 80 26.7 74 23.3 82 82 SSW 7 11 29.89 1012 10 16.0934 0 0
4:52 am 04:52 Mostly Clear 79 26.1 73 22.8 82 82 SW 5 7 29.88 1012 10 16.0934 0 0
5:52 am 05:52 Mostly Cloudy 78 25.6 73 22.8 85 85 Calm 29.9 1012 10 16.0934 0 0
6:52 am 06:52 Mostly Cloudy 79 26.1 73 22.8 82 82 WSW 5 7 29.9 1013 10 16.0934 0 0
7:52 am 07:52 Mostly Cloudy 81 27.2 74 23.3 79 79 SW 3 6 29.91 1013 10 16.0934 0 0
8:52 am 08:52 Mostly Cloudy 85 29.4 74 23.3 70 70 NNE 6 9 29.91 1013 10 16.0934 0 0
9:52 am 09:52 Cloudy 88 31.1 70 21.1 55 55 NNE 7 11 29.9 1013 10 16.0934 0 0
10:52 am 10:52 Cloudy 91 32.8 67 19.4 45 45 NNE 3 6 29.9 1013 10 16.0934 0 0
11:52 am 11:52 Cloudy 91 32.8 67 19.4 45 45 SE 5 7 29.89 1012 10 16.0934 0 0
12:52 pm 12:52 Cloudy 92 33.3 67 19.4 44 44 S 10 17 29.87 1012 10 16.0934 0 0
1:52 pm 13:52 Mostly Cloudy 93 33.9 70 21.1 47 47 S 13 20 29.86 1011 10 16.0934 0 0
2:52 pm 14:52 Partly Cloudy 92 33.3 71 21.7 51 51 SSE 13 20 29.84 1011 10 16.0934 0 0
3:52 pm 15:52 Mostly Cloudy 93 33.9 71 21.7 49 49 S 12 19 29.82 1010 10 16.0934 0 0
4:52 pm 16:52 Mostly Cloudy 93 33.9 74 23.3 54 54 S 10 17 29.8 1009 10 16.0934 0 0
5:52 pm 17:52 Cloudy 91 32.8 75 23.9 59 59 S 9 15 29.8 1009 10 16.0934 0 0
6:37 pm 18:37 Cloudy 88 31.1 70 21.1 55 55 SSW 20 31 29.81 1009 10 16.0934 0 0
6:52 pm 18:52 Cloudy 86 30 67 19.4 53 53 SSW 10 17 29.8 1009 10 16.0934 0 0
7:44 pm 19:44 Cloudy with Light Rain 84 28.9 69 20.6 61 61 SW 22 35 29.85 1011 10 16.0934 0.001 0.001
7:49 pm 19:49 Windy with Storms Likely 81 27 72 22 74 74 SW 25 41 29.86 1011 10 16.0934 0.001 0.001
7:52 pm 19:52 Windy with Storms Likely 78 25.6 71 21.7 79 79 SW 23 37 29.87 1012 10 16.0934 0.001 0.001
7:56 pm 19:56 Mostly Cloudy with Heavy Thunderstorms 78 25.6 72 22.2 82 82 SW 18 30 29.88 1012 3 4.82802 0.01 0.254
8:08 pm 20:08 Cloudy with Light Rain 76 24.4 73 22.8 91 91 SSW 15 24 29.88 1012 5 8.0467 0.05 1.27
8:21 pm 20:21 Cloudy with Nearby Thunderstorms 76 24.4 73 22.8 91 91 SSW 9 15 29.88 1012 5 8.0467 0.08 2.032
8:32 pm 20:32 Cloudy with Light Rain 76 24.4 72 22.2 88 88 S 15 24 29.87 1011 10 16.0934 0.1 2.54
8:52 pm 20:52 Cloudy with Light Rain 75 23.9 72 22.2 90 90 S 8 13 29.87 1011 10 16.0934 0.1 2.54
9:52 pm 21:52 Cloudy with Light Rain 75 23.9 71 21.7 88 88 N 5 7 29.86 1011 10 16.0934 0.01 0.254
10:52 pm 22:52 Cloudy 76 24.4 73 22.8 91 91 E 6 9 29.85 1011 10 16.0934 0.001 0.001
11:52 pm 23:52 Cloudy with Light Rain 76 24.4 73 22.8 91 91 S 13 20 29.88 1012 8 12.87472 0.01 0.254

Powered by AerisWeather